Temp
-10 -10 -11 -12 -12 -12 -12 -12 -12 -12 -11 -11 -11 -11 -11 -11 -11 -11 -11 -11 -11 -11 -11 -11 -11 -11 -11 -11 -11 -11 -10 -10
-10 -10 -11 -12 -12 -12 -12 -12 -12 -12 -11 -11 -11 -11 -11 -11 -11 -11 -11 -11 -11 -11 -11 -11 -11 -11 -11 -11 -11 -11 -11 -10
-10 -10 -11 -11 -12 -12 -12 -12 -12 -12 -11 -11 -11 -11 -11 -11 -11 -11 -11 -12 -11 -11 -11 -11 -11 -11 -11 -11 -11 -11 -11 -11
-10 -10 -11 -11 -12 -12 -12 -12 -12 -12 -11 -11 -11 -11 -11 -11 -11 -11 -11 -11 -11 -11 -11 -11 -11 -11 -11 -11 -11 -11 -11 -11
-10 -10 -11 -12 -12 -12 -12 -12 -12 -12 -11 -11 -11 -11 -10 -10 -10 -10 -11 -11 -11 -11 -11 -11 -11 -11 -11 -11 -11 -11 -11 -11
-10 -10 -11 -11 -12 -12 -12 -12 -12 -12 -11 -11 -11 -10 -10 -10 -10 -10 -10 -11 -11 -11 -11 -11 -11 -11 -11 -11 -11 -11 -11 -11
-11 -11 -11 -11 -12 -12 -12 -12 -12 -12 -11 -11 -11 -11 -10 -10 -10 -10 -10 -10 -10 -11 -11 -11 -11 -11 -11 -11 -11 -11 -11 -11
-11 -11 -11 -11 -12 -12 -12 -12 -12 -11 -11 -11 -11 -11 -10 -10 -10 -10 -10 -10 -10 -11 -11 -11 -11 -11 -11 -11 -11 -11 -11 -11
-12 -12 -12 -11 -12 -12 -12 -11 -12 -11 -11 -11 -11 -11 -11 -11 -11 -11 -11 -11 -11 -11 -11 -11 -11 -11 -11 -11 -11 -12 -12 -12
-12 -12 -12 -12 -11 -11 -12 -11 -11 -11 -11 -11 -11 -11 -11 -11 -11 -11 -11 -11 -11 -11 -11 -11 -11 -11 -12 -11 -12 -12 -12 -12
-11 -12 -12 -12 -11 -11 -12 -12 -11 -11 -11 -11 -11 -11 -11 -11 -11 -11 -11 -11 -11 -11 -11 -11 -11 -12 -11 -12 -12 -12 -12 -12
-12 -12 -12 -12 -12 -11 -11 -11 -11 -11 -11 -11 -11 -11 -11 -11 -11 -11 -11 -11 -11 -11 -11 -11 -11 -11 -12 -12 -12 -12 -12 -12
-11 -12 -12 -12 -12 -11 -11 -11 -11 -11 -11 -11 -11 -11 -11 -12 -12 -11 -11 -11 -11 -11 -11 -11 -12 -12 -12 -12 -12 -12 -12 -12
-11 -12 -12 -12 -12 -12 -11 -11 -11 -11 -11 -11 -11 -11 -12 -12 -12 -12 -11 -11 -11 -11 -12 -12 -12 -12 -12 -12 -12 -12 -12 -12
-10 -11 -11 -11 -12 -12 -11 -11 -11 -11 -11 -11 -12 -12 -12 -12 -12 -12 -12 -12 -12 -12 -12 -12 -12 -12 -12 -12 -12 -12 -12 -13
-11 -11 -11 -11 -12 -12 -12 -11 -11 -11 -11 -11 -11 -12 -12 -12 -12 -12 -12 -12 -12 -12 -12 -12 -12 -12 -12 -12 -12 -13 -13 -13
-11 -11 -11 -11 -11 -12 -11 -12 -12 -11 -11 -11 -12 -12 -12 -12 -12 -12 -12 -12 -12 -12 -12 -12 -12 -12 -12 -12 -12 -12 -12 -13
-11 -12 -11 -11 -11 -11 -11 -11 -11 -11 -12 -11 -12 -12 -12 -13 -12 -12 -12 -12 -12 -12 -12 -12 -12 -12 -12 -13 -13 -13 -13 -13
-10 -11 -12 -11 -11 -11 -11 -11 -11 -11 -11 -12 -12 -12 -12 -13 -13 -13 -13 -12 -12 -12 -12 -12 -12 -13 -13 -13 -13 -13 -13 -13
-10 -11 -12 -12 -12 -12 -12 -11 -11 -11 -11 -12 -13 -12 -12 -12 -13 -13 -13 -13 -12 -12 -13 -13 -13 -13 -13 -13 -13 -13 -13 -13
Height
5847 5848 5848 5849 5851 5852 5853 5854 5854 5853 5853 5853 5854 5854 5853 5855 5855 5856 5856 5856 5856 5856 5856 5855 5854 5854 5855 5855 5855 5855 5854 5853
5844 5843 5843 5845 5847 5849 5850 5851 5851 5851 5851 5851 5852 5852 5852 5854 5855 5856 5856 5856 5856 5856 5856 5856 5855 5855 5855 5856 5855 5854 5853 5853
5840 5840 5840 5842 5844 5846 5848 5848 5849 5849 5849 5849 5850 5850 5851 5851 5853 5854 5855 5855 5855 5855 5855 5855 5855 5856 5856 5856 5856 5856 5855 5854
5836 5836 5837 5839 5841 5843 5845 5846 5846 5847 5847 5847 5848 5849 5850 5850 5851 5852 5853 5853 5854 5854 5854 5854 5854 5855 5855 5856 5856 5855 5855 5854
5833 5832 5834 5835 5838 5840 5842 5843 5844 5844 5845 5845 5845 5847 5847 5848 5849 5850 5850 5851 5852 5852 5853 5853 5853 5853 5853 5854 5854 5854 5854 5853
5829 5830 5831 5833 5835 5837 5839 5840 5841 5841 5842 5843 5843 5845 5845 5846 5847 5847 5849 5849 5850 5851 5852 5852 5851 5852 5852 5852 5852 5852 5852 5851
5825 5827 5829 5830 5831 5833 5835 5837 5837 5838 5839 5840 5841 5842 5843 5844 5844 5845 5846 5847 5848 5849 5850 5849 5850 5850 5850 5849 5849 5848 5848 5848
5821 5823 5825 5826 5827 5830 5832 5833 5834 5835 5836 5837 5838 5838 5839 5841 5842 5843 5844 5845 5845 5846 5846 5846 5846 5847 5846 5846 5845 5845 5845 5844
5816 5819 5821 5822 5824 5825 5827 5829 5831 5832 5832 5834 5835 5835 5836 5837 5838 5840 5841 5842 5842 5842 5842 5842 5842 5842 5842 5842 5841 5841 5840 5840
5810 5813 5817 5818 5820 5821 5823 5824 5826 5828 5829 5831 5831 5832 5833 5834 5835 5837 5838 5838 5838 5838 5838 5838 5838 5837 5838 5838 5837 5837 5837 5836
5805 5806 5810 5813 5814 5816 5817 5819 5821 5823 5825 5826 5827 5828 5829 5830 5831 5832 5833 5834 5835 5835 5835 5835 5835 5833 5833 5834 5834 5832 5831 5831
5799 5801 5802 5805 5808 5810 5812 5813 5816 5818 5820 5821 5822 5823 5825 5826 5827 5828 5828 5829 5831 5831 5830 5830 5829 5829 5829 5828 5828 5828 5827 5827
5793 5795 5797 5798 5801 5803 5806 5808 5809 5812 5814 5815 5817 5818 5820 5821 5821 5822 5824 5825 5826 5826 5825 5825 5825 5824 5824 5823 5823 5822 5821 5820
5786 5789 5790 5792 5794 5796 5798 5800 5803 5804 5807 5810 5811 5813 5815 5815 5815 5818 5819 5820 5820 5821 5820 5820 5819 5819 5818 5818 5817 5815 5812 5814
5781 5783 5784 5785 5786 5787 5789 5792 5795 5799 5803 5804 5806 5807 5809 5810 5811 5813 5813 5814 5816 5816 5815 5814 5813 5813 5812 5811 5811 5809 5807 5804
5773 5773 5774 5777 5777 5779 5781 5785 5788 5792 5793 5795 5798 5800 5802 5803 5804 5806 5807 5808 5808 5809 5809 5808 5808 5807 5806 5806 5804 5803 5800 5799
5759 5763 5764 5766 5769 5772 5774 5776 5780 5782 5785 5789 5791 5793 5794 5795 5797 5799 5801 5802 5803 5803 5803 5802 5801 5800 5799 5799 5797 5794 5791 5788
5748 5750 5753 5756 5761 5764 5766 5770 5770 5773 5778 5782 5783 5784 5785 5786 5788 5791 5793 5794 5796 5796 5796 5795 5794 5793 5791 5790 5788 5786 5782 5780
5740 5741 5743 5745 5749 5756 5757 5762 5762 5765 5769 5775 5775 5775 5777 5777 5781 5784 5784 5786 5787 5788 5787 5786 5784 5783 5781 5780 5777 5775 5771 5768
5729 5730 5733 5734 5738 5746 5749 5752 5753 5755 5762 5767 5766 5768 5769 5771 5772 5775 5777 5779 5779 5779 5778 5777 5776 5775 5773 5769 5767 5764 5761 5758
Wind_Speed
22 20 18 19 17 17 14 10 12 9 8 7 7 6 5 8 8 8 7 6 5 5 5 5 5 6 6 5 4 4 5 5
18 16 19 21 21 17 15 13 12 11 10 8 7 7 6 7 9 9 7 7 7 8 8 8 8 8 9 9 7 7 6 7
20 17 22 21 20 16 15 14 12 12 11 10 8 8 8 8 9 9 8 8 9 10 10 10 10 11 11 11 12 12 12 10
18 16 22 24 20 18 16 13 14 13 12 11 9 11 10 8 9 10 8 9 9 11 12 11 11 13 13 13 14 14 15 15
14 15 22 24 21 17 14 15 15 14 13 12 11 11 11 9 10 10 9 9 9 10 11 12 13 13 14 15 15 16 17 18
15 13 19 22 19 17 17 17 16 15 14 14 13 13 13 11 12 11 11 11 10 11 12 12 13 14 14 15 15 16 17 18
16 18 17 22 20 20 20 19 18 17 16 17 15 15 14 13 13 13 13 13 13 13 13 14 14 15 15 16 17 18 20 20
20 21 20 20 22 21 21 21 20 20 19 19 17 17 17 16 15 15 15 15 14 15 16 17 17 18 18 18 19 19 19 20
25 24 25 24 24 25 23 22 21 23 22 21 20 20 19 18 18 18 18 17 17 17 19 20 20 20 21 20 22 22 21 23
28 28 28 28 28 28 28 27 24 26 25 25 24 24 22 21 21 21 20 21 21 20 21 22 23 23 22 23 24 24 24 25
34 31 31 32 31 33 33 32 28 28 28 27 26 26 25 25 24 23 23 23 24 24 24 25 25 26 27 24 25 26 27 28
40 37 34 36 36 35 35 35 31 28 29 28 27 28 26 28 28 27 26 26 26 26 26 27 28 28 29 30 30 30 31 33
44 41 38 38 37 37 36 35 33 31 31 30 30 28 28 32 32 30 26 28 26 27 29 29 30 29 30 31 30 33 35 36
43 43 43 40 40 40 39 37 35 35 34 32 31 29 28 27 29 27 27 28 27 33 31 30 31 32 32 33 32 36 39 37
38 40 39 39 42 45 44 41 38 35 32 32 31 30 31 32 32 31 30 34 33 33 34 33 34 33 35 36 36 39 42 44
35 42 43 39 43 47 47 42 39 36 38 38 35 33 34 34 33 32 32 33 35 36 34 35 35 34 36 37 39 42 44 44
39 41 45 46 43 46 47 45 44 42 41 40 37 37 38 37 37 37 36 36 36 37 37 37 37 38 38 39 41 43 46 48
45 45 44 48 47 47 51 48 48 46 41 39 40 42 42 42 42 39 38 34 36 37 37 39 39 40 41 42 45 45 48 50
40 43 47 47 51 47 52 50 51 48 44 39 44 45 45 48 45 45 39 38 39 39 40 40 42 41 44 48 47 49 49 51
35 41 48 47 49 47 51 52 53 50 41 42 47 46 49 49 49 47 43 37 40 41 42 42 42 43 48 51 47 46 49 50
Wind_Direction
267 255 239 221 229 228 237 271 296 300 301 299 284 275 276 268 260 249 250 261 269 268 272 285 291 285 281 280 286 308 328 335
250 267 230 224 228 221 240 268 281 287 288 282 277 276 276 278 275 268 268 267 268 267 267 275 279 278 283 278 274 276 289 303
276 260 221 218 212 228 249 264 268 276 278 274 268 271 267 266 273 277 278 276 273 270 269 277 285 285 282 287 295 295 297 297
270 245 216 217 209 231 254 250 264 274 273 275 274 272 270 275 281 284 290 289 279 278 279 284 288 292 296 294 295 297 296 299
256 247 215 213 218 238 231 252 264 270 271 276 268 267 268 273 276 278 280 283 283 279 279 284 288 290 291 292 293 294 295 297
257 253 221 216 214 222 235 249 263 270 273 273 270 264 263 268 270 266 274 275 273 272 273 276 280 285 290 290 292 290 291 293
255 246 228 215 212 226 239 248 262 269 271 271 271 266 267 265 264 263 264 266 267 269 269 272 276 279 280 282 285 286 288 287
246 248 239 235 231 238 245 252 261 266 268 269 270 268 264 264 262 262 260 261 268 272 276 277 279 279 276 275 278 278 276 275
245 245 245 243 243 243 246 251 255 262 265 269 267 265 262 264 263 261 260 261 264 271 275 277 278 279 277 279 281 280 279 279
246 248 250 250 251 252 251 252 252 258 261 265 266 265 263 264 265 265 265 265 266 266 270 273 276 276 279 282 283 284 282 282
242 244 247 250 252 253 254 256 254 255 256 260 264 264 267 268 267 266 267 267 267 269 272 272 273 276 279 283 282 281 282 280
242 243 244 248 250 253 256 256 256 255 256 257 260 261 264 271 269 266 266 267 268 272 275 276 279 281 284 286 286 284 280 280
249 246 248 248 253 254 255 257 253 252 252 252 256 259 263 267 263 266 266 267 268 272 274 276 278 281 285 284 288 288 287 286
250 250 248 250 251 255 257 253 248 248 251 255 259 261 262 266 257 267 266 266 269 272 274 276 280 281 284 286 287 288 285 287
250 251 250 247 246 248 253 252 250 251 255 258 258 258 259 261 265 265 263 261 267 269 274 278 281 283 284 288 289 288 289 289
251 249 252 247 244 245 249 253 254 253 252 252 256 258 259 262 264 264 264 262 266 271 275 277 279 281 284 287 288 287 287 288
259 248 248 251 242 243 246 249 251 251 253 256 260 262 263 264 263 262 263 265 266 270 275 277 278 281 284 289 293 291 290 290
248 249 247 247 245 241 246 247 251 254 252 255 260 261 263 265 262 262 265 266 269 271 274 277 279 279 287 292 292 290 289 286
252 250 244 248 245 239 243 244 247 252 254 256 259 261 263 263 265 260 257 260 264 269 272 276 279 281 288 293 290 290 289 291
246 242 238 246 243 239 239 241 243 249 253 255 253 258 261 264 263 263 263 260 266 270 275 281 280 284 285 287 288 292 294 292